• In Belgien
  • Länderverzeichnis
  • Für 7 Tage
  • Wassertemperatur
  • Satellitenkarten
  • Wetterkarte
  • Widgets
  • user-avatar
    Anmelden

    Stündliche Wetter Darwin

    Heute, 22 April, Sonntag

    Zeit Temperatur Niederschläge Wind Luftdruck Luftfeuchtigkeit
    00:00 +28°C° 0 mm 4 m/S 758 mmHg 60%
    01:00 +27°C° 0 mm 4 m/S 757 mmHg 60%
    02:00 +27°C° 0 mm 4 m/S 757 mmHg 61%
    03:00 +26°C° 0 mm 3 m/S 757 mmHg 64%
    04:00 +26°C° 0 mm 4 m/S 757 mmHg 65%
    05:00 +25°C° 0 mm 4 m/S 757 mmHg 66%
    06:00 +25°C° 0 mm 4 m/S 757 mmHg 67%
    07:00 +27°C° 0 mm 5 m/S 758 mmHg 63%
    08:00 +28°C° 0 mm 5 m/S 758 mmHg 58%
    09:00 +30°C° 0 mm 5 m/S 758 mmHg 55%
    10:00 +33°C° 0 mm 5 m/S 758 mmHg 49%
    11:00 +34°C° 0 mm 6 m/S 757 mmHg 44%
    12:00 +36°C° 0 mm 7 m/S 757 mmHg 39%
    13:00 +38°C° 0 mm 6 m/S 756 mmHg 37%
    14:00 +38°C° 0 mm 6 m/S 756 mmHg 36%
    15:00 +39°C° 0 mm 5 m/S 755 mmHg 34%
    16:00 +36°C° 0 mm 5 m/S 755 mmHg 40%
    17:00 +34°C° 0 mm 4 m/S 756 mmHg 47%
    18:00 +33°C° 0 mm 3 m/S 756 mmHg 53%
    19:00 +32°C° 0 mm 4 m/S 756 mmHg 55%
    20:00 +30°C° 0 mm 4 m/S 757 mmHg 58%
    21:00 +30°C° 0 mm 4 m/S 757 mmHg 60%
    22:00 +30°C° 0 mm 4 m/S 757 mmHg 62%
    23:00 +29°C° 0 mm 4 m/S 757 mmHg 65%

    Morgen, 23 April, Montag

    Zeit Temperatur Niederschläge Wind Luftdruck Luftfeuchtigkeit
    00:00 +29°C° 0 mm 4 m/S 757 mmHg 67%
    01:00 +28°C° 0 mm 4 m/S 757 mmHg 69%
    02:00 +28°C° 0 mm 4 m/S 757 mmHg 71%
    03:00 +27°C° 0 mm 4 m/S 757 mmHg 72%
    04:00 +26°C° 0 mm 4 m/S 757 mmHg 72%
    05:00 +26°C° 0 mm 4 m/S 757 mmHg 73%
    06:00 +25°C° 0 mm 4 m/S 757 mmHg 73%
    07:00 +27°C° 0 mm 4 m/S 758 mmHg 68%
    08:00 +28°C° 0 mm 4 m/S 758 mmHg 64%
    09:00 +30°C° 0 mm 5 m/S 758 mmHg 59%
    10:00 +33°C° 0 mm 5 m/S 758 mmHg 53%
    11:00 +35°C° 0 mm 5 m/S 757 mmHg 47%
    12:00 +36°C° 0 mm 5 m/S 757 mmHg 41%
    13:00 +37°C° 0 mm 5 m/S 756 mmHg 39%
    14:00 +37°C° 0 mm 4 m/S 756 mmHg 37%
    15:00 +38°C° 0 mm 4 m/S 755 mmHg 35%
    16:00 +36°C° 0 mm 3 m/S 755 mmHg 40%
    17:00 +35°C° 0 mm 3 m/S 755 mmHg 45%
    18:00 +32°C° 0 mm 2 m/S 755 mmHg 51%
    19:00 +31°C° 0 mm 2 m/S 756 mmHg 52%
    20:00 +30°C° 0 mm 2 m/S 756 mmHg 54%
    21:00 +29°C° 0 mm 2 m/S 757 mmHg 56%
    22:00 +29°C° 0,1 mm 2 m/S 757 mmHg 57%
    23:00 +29°C° 0,1 mm 2 m/S 757 mmHg 59%

    übermorgen, 24 April, Dienstag

    Zeit Temperatur Niederschläge Wind Luftdruck Luftfeuchtigkeit
    00:00 +29°C° 0,1 mm 2 m/S 757 mmHg 60%
    01:00 +28°C° 0,1 mm 2 m/S 757 mmHg 63%
    02:00 +28°C° 0,1 mm 2 m/S 757 mmHg 66%
    03:00 +27°C° 0,1 mm 2 m/S 757 mmHg 69%
    04:00 +27°C° 0 mm 3 m/S 757 mmHg 71%
    05:00 +27°C° 0 mm 3 m/S 757 mmHg 72%
    06:00 +26°C° 0 mm 4 m/S 757 mmHg 73%
    07:00 +27°C° 0 mm 4 m/S 758 mmHg 68%
    08:00 +29°C° 0 mm 5 m/S 758 mmHg 64%
    09:00 +30°C° 0 mm 6 m/S 759 mmHg 60%
    10:00 +33°C° 0 mm 6 m/S 758 mmHg 53%
    11:00 +34°C° 0 mm 6 m/S 758 mmHg 45%
    12:00 +36°C° 0 mm 6 m/S 757 mmHg 37%
    13:00 +36°C° 0 mm 5 m/S 756 mmHg 36%
    14:00 +37°C° 0 mm 4 m/S 756 mmHg 34%
    15:00 +37°C° 0 mm 4 m/S 755 mmHg 33%
    16:00 +35°C° 0 mm 3 m/S 755 mmHg 38%
    17:00 +34°C° 0 mm 2 m/S 755 mmHg 43%
    18:00 +31°C° 0 mm 2 m/S 755 mmHg 48%
    19:00 +30°C° 0 mm 2 m/S 756 mmHg 50%
    20:00 +30°C° 0 mm 1 m/S 756 mmHg 51%
    21:00 +29°C° 0 mm 1 m/S 757 mmHg 52%
    22:00 +28°C° 0 mm 2 m/S 757 mmHg 52%
    23:00 +27°C° 0 mm 2 m/S 757 mmHg 53%

    25 April, Mittwoch

    Zeit Temperatur Niederschläge Wind Luftdruck Luftfeuchtigkeit
    00:00 +27°C° 0 mm 2 m/S 757 mmHg 54%
    01:00 +27°C° 0 mm 2 m/S 757 mmHg 54%
    02:00 +26°C° 0 mm 3 m/S 757 mmHg 55%
    03:00 +26°C° 0 mm 3 m/S 757 mmHg 55%
    04:00 +26°C° 0 mm 3 m/S 757 mmHg 59%
    05:00 +25°C° 0 mm 4 m/S 757 mmHg 63%
    06:00 +25°C° 0 mm 4 m/S 757 mmHg 66%
    07:00 +26°C° 0 mm 4 m/S 758 mmHg 64%
    08:00 +28°C° 0 mm 5 m/S 758 mmHg 62%
    09:00 +30°C° 0 mm 5 m/S 758 mmHg 60%
    10:00 +32°C° 0 mm 5 m/S 758 mmHg 51%
    11:00 +34°C° 0 mm 5 m/S 757 mmHg 43%
    12:00 +36°C° 0 mm 5 m/S 757 mmHg 34%
    13:00 +36°C° 0 mm 4 m/S 756 mmHg 33%
    14:00 +36°C° 0 mm 4 m/S 756 mmHg 32%
    15:00 +37°C° 0 mm 3 m/S 755 mmHg 30%
    16:00 +35°C° 0 mm 3 m/S 755 mmHg 35%
    17:00 +33°C° 0 mm 3 m/S 755 mmHg 41%
    18:00 +30°C° 0 mm 2 m/S 756 mmHg 46%
    19:00 +30°C° 0 mm 2 m/S 756 mmHg 48%
    20:00 +29°C° 0 mm 2 m/S 757 mmHg 50%
    21:00 +28°C° 0 mm 1 m/S 757 mmHg 52%
    22:00 +27°C° 0 mm 1 m/S 757 mmHg 52%
    23:00 +27°C° 0 mm 1 m/S 757 mmHg 53%

    26 April, Donnerstag

    Zeit Temperatur Niederschläge Wind Luftdruck Luftfeuchtigkeit
    00:00 +27°C° 0 mm 1 m/S 757 mmHg 53%
    01:00 +26°C° 0 mm 2 m/S 757 mmHg 54%
    02:00 +26°C° 0 mm 2 m/S 757 mmHg 56%
    03:00 +26°C° 0 mm 3 m/S 757 mmHg 57%
    04:00 +25°C° 0,1 mm 3 m/S 757 mmHg 62%
    05:00 +25°C° 0,1 mm 3 m/S 758 mmHg 66%
    06:00 +25°C° 0,1 mm 3 m/S 758 mmHg 71%
    07:00 +27°C° 0 mm 3 m/S 758 mmHg 68%
    08:00 +28°C° 0 mm 4 m/S 759 mmHg 64%
    09:00 +30°C° 0 mm 4 m/S 759 mmHg 61%
    10:00 +32°C° 0 mm 4 m/S 759 mmHg 53%
    11:00 +34°C° 0 mm 4 m/S 758 mmHg 45%
    12:00 +36°C° 0 mm 4 m/S 758 mmHg 37%
    13:00 +36°C° 0 mm 4 m/S 757 mmHg 36%
    14:00 +37°C° 0 mm 4 m/S 757 mmHg 34%
    15:00 +37°C° 0 mm 3 m/S 756 mmHg 33%
    16:00 +36°C° 0 mm 3 m/S 756 mmHg 38%
    17:00 +34°C° 0 mm 2 m/S 757 mmHg 44%
    18:00 +31°C° 0 mm 2 m/S 757 mmHg 49%
    19:00 +30°C° 0 mm 2 m/S 758 mmHg 51%
    20:00 +29°C° 0 mm 1 m/S 758 mmHg 54%
    21:00 +28°C° 0 mm 1 m/S 759 mmHg 56%
    22:00 +28°C° 0 mm 1 m/S 759 mmHg 57%
    23:00 +27°C° 0 mm 2 m/S 759 mmHg 58%

    27 April, Freitag

    Zeit Temperatur Niederschläge Wind Luftdruck Luftfeuchtigkeit
    00:00 +27°C° 0 mm 2 m/S 759 mmHg 59%
    01:00 +27°C° 0 mm 2 m/S 759 mmHg 60%
    02:00 +26°C° 0 mm 2 m/S 758 mmHg 62%
    03:00 +26°C° 0 mm 3 m/S 758 mmHg 63%
    04:00 +26°C° 0 mm 3 m/S 758 mmHg 65%
    05:00 +25°C° 0 mm 3 m/S 759 mmHg 66%
    06:00 +25°C° 0 mm 3 m/S 759 mmHg 67%
    07:00 +26°C° 0 mm 3 m/S 759 mmHg 63%
    08:00 +28°C° 0 mm 4 m/S 759 mmHg 59%
    09:00 +29°C° 0 mm 4 m/S 760 mmHg 55%
    10:00 +32°C° 0 mm 4 m/S 759 mmHg 47%
    11:00 +34°C° 0 mm 4 m/S 759 mmHg 39%
    12:00 +36°C° 0 mm 5 m/S 759 mmHg 31%
    13:00 +36°C° 0 mm 4 m/S 758 mmHg 31%
    14:00 +36°C° 0 mm 4 m/S 757 mmHg 32%
    15:00 +36°C° 0 mm 3 m/S 757 mmHg 33%
    16:00 +35°C° 0 mm 3 m/S 757 mmHg 38%
    17:00 +32°C° 0 mm 2 m/S 757 mmHg 44%
    18:00 +30°C° 0 mm 1 m/S 758 mmHg 49%
    19:00 +30°C° 0 mm 1 m/S 758 mmHg 51%
    20:00 +29°C° 0 mm 1 m/S 759 mmHg 52%
    21:00 +29°C° 0 mm 1 m/S 759 mmHg 53%
    22:00 +29°C° 0 mm 1 m/S 759 mmHg 54%
    23:00 +29°C° 0 mm 2 m/S 759 mmHg 55%
    Mehr zeigen